Skip Page Navigation
NASA JPL Caltech
NASA Logo - Jet Propulsion Laboratory + View the NASA Portal
+ Near-Earth Object (NEO) Program
Search JPL
JPL Home Earth Solar System Stars & Galaxies Technology
JPL Solar System Dynamics
BODIES ORBITS EPHEMERIDES TOOLS PHYSICAL DATA DISCOVERY FAQ SITE MAP
JPL Small-Body Database Browser
Search: [ help ]  
(2003 MK4)
Classification: Apollo [NEO, PHA]          SPK-ID: 3157028
Ephemeris | Orbit Diagram | Orbital Elements | Physical Parameters | Close-Approach Data ]

[ hide orbit diagram ]
Orbit Diagram
Note: Make sure you have Java enabled on your browser to see the applet. This applet is provided as a 3D orbit visualization tool. The applet was implemented using 2-body methods, and hence should not be used for determining accurate long-term trajectories (over several years or decades) or planetary encounter circumstances. For accurate long-term ephemerides, please instead use our Horizons system.
Orbit Viewer

Additional Notes: the orbits shown in the applet are color coded. The planets are white lines, and the asteroid/comet is a blue line. The bright white line indicates the portion of the orbit that is above the ecliptic plane, and the darker portion is below the ecliptic plane. Likewise for the asteroid/comet orbit, the light blue indicates the portion above the ecliptic plane, and the dark blue the portion below the ecliptic plane.

Orbit Viewer applet originally written and kindly provided by Osamu Ajiki (AstroArts), and further modified by Ron Baalke (JPL).


Orbital Elements at Epoch 2456400.5 (2013-Apr-18.0) TDB
Reference: JPL 29 (heliocentric ecliptic J2000)
 Element Value Uncertainty (1-sigma)   Units 
e .1812684311068663 1.8736e-07  
a 1.080222086555781 6.4046e-09 AU
q .8844119236788288 2.0185e-07 AU
i 22.31774681274713 3.6318e-05 deg
node 282.6270664104952 9.0246e-06 deg
peri 109.5682447310238 3.2419e-05 deg
M 172.3814371791635 3.9196e-05 deg
tp 2456204.138653083189
(2012-Oct-03.63865308)
4.336e-05 JED
period 410.0794496601205
1.12
3.647e-06
9.985e-09
d
yr
n .8778786654595174 7.8074e-09 deg/d
Q 1.276032249432733 7.5656e-09 AU
  Orbit Determination Parameters
   # obs. used (total)      233  
   data-arc span      3280 days (8.98 yr)  
   first obs. used      2003-06-27  
   last obs. used      2012-06-19  
   planetary ephem.      DE405  
   SB-pert. ephem.      SB405-CPV-2  
   condition code      0  
   fit RMS      .63268  
   data source      ORB  
   producer      Otto Matic  
   solution date      2012-Jun-20 00:50:59  

Additional Information
 Earth MOID = .00112419 AU 
 T_jup = 5.646 
[ show covariance matrix ]

Ephemeris | Orbit Diagram | Orbital Elements | Physical Parameters | Close-Approach Data ]

Physical Parameter Table
Parameter Symbol Value Units Sigma Reference Notes
absolute magnitude H 20.793 mag .51886 29 autocmod 2.5b

[ show close-approach data ]
Ephemeris | Orbit Diagram | Orbital Elements | Physical Parameters | Close-Approach Data ]
ABOUT SSD CREDITS/AWARDS PRIVACY/COPYRIGHT GLOSSARY LINKS
FirstGov 2013-May-22 02:20 UT
(server date/time)  
NASA Home Page
Site Manager:   Donald K. Yeomans
Webmaster  Alan B. Chamberlin